Flag for U.S.A. Weather past 2 weeks in Sheboygan, Wisconsin, U.S.A.

Now
64 °F

Clear.


Feels Like: 64 °F
Forecast: 48 / 59 °F
Wind: N/A

Location: Sheboygan County Memorial Airport

Current Time: Sep 20, 2014 at 11:10:48 PM

Latest Report: Sep 20, 2014 at 10:53 PM


Visibility: 10 mi

Pressure: 29.67 "Hg

Humidity: 90%

Dew point: 61 °F

Location of SheboyganLocation

Historic Weather in Sheboygan — Graph

°F

Sheboygan temperature yesterday

Maximum temperature yesterday: 70 °F (at 12:53 PM)
Minimum temperature yesterday: 40 °F (at 1:53 AM)
Average temperature yesterday: 58 °F

Past Weeks' High & Low Weather Summary

 TemperatureHumidityPressure
High77 °F (Sep 10, 1:53 PM)100% (Sep 9, 6:02 AM)30.40 "Hg (Sep 9, 6:02 AM)
Low39 °F (Sep 16, 5:53 AM)38% (Sep 16, 2:53 PM)29.43 "Hg (Sep 10, 1:53 PM)
Average56 °F78%30.08 "Hg
* Reported Sep 5 9:53 PM — Sep 20 9:53 PM, Sheboygan, Weather by CustomWeather, © 2014

Note: Actual official high and low records may vary slightly from our data, if they occured in-between our weather recording intervals... More about our weather records

Advertising

Sheboygan weather history for previous 24 hours

 ConditionsComfort  
Time TempWeatherWind HumidityBarometerVisibility
9:53 PM
Sep 20
63 °FClear.7 mph90%29.69 "Hg10 mi
8:53 PM64 °FClear.7 mph87%29.71 "Hg10 mi
7:53 PM65 °FClear.8 mph85%29.71 "Hg10 mi
6:53 PM67 °FSunny.9 mph81%29.71 "Hg10 mi
5:53 PM72 °FSunny.10 mph68%29.70 "Hg10 mi
4:53 PM73 °FSunny.16 mph71%29.71 "Hg10 mi
3:53 PM72 °FLight rain. Broken clouds.15 mph78%29.72 "Hg10 mi
2:53 PM71 °FLight rain. Mostly cloudy.16 mph76%29.73 "Hg10 mi
1:53 PM75 °FScattered clouds.18 mph66%29.73 "Hg10 mi
12:53 PM73 °FOvercast.20 mph69%29.74 "Hg10 mi
7:53 AM64 °FSunny.12 mph87%29.75 "Hg9 mi
6:53 AM64 °FPassing clouds.12 mph84%29.74 "Hg9 mi
5:53 AM63 °FClear.15 mph87%29.76 "Hg9 mi
4:53 AM64 °FLight rain. Partly cloudy.20 mph84%29.79 "Hg9 mi
3:53 AM66 °FThunderstorms. Mostly cloudy.23 mph73%29.79 "Hg10 mi
2:53 AM66 °FMostly cloudy.18 mph65%29.78 "Hg10 mi
1:53 AM63 °FClear.13 mph68%29.79 "Hg10 mi
12:53 AM61 °FClear.8 mph65%29.82 "Hg10 mi
11:53 PM
Sep 19
63 °FClear.15 mph60%29.84 "Hg10 mi
Weather by CustomWeather, © 2014

See weather overviewHow to use our weather pages